User: anonymous   Login
Location: Overspoor
(51.4747°N, 5.6641°E)
Time: 12:39:07
(UTC+02:00)
Language:

RS-15 - Orbit

View from above orbital plane
View from above orbital plane
View from above satellite
View from above satellite

Ground track
Ground track

The orbit data is extracted from the following two-line orbital elements,

1 23439U 94085A   22179.92660399 -.00000039  00000-0  10000-3 0  9999
2 23439  64.8151 127.0584 0168170 270.5750  87.5905 11.27572684132782
Epoch (UTC): 28 June 2022 22:14:18
Eccentricity: 0.0168170
inclination: 64.8151°
perigee height: 1881 km
apogee height: 2163 km
right ascension of ascending node: 127.0584°
argument of perigee: 270.5750°
revolutions per day: 11.27572684
mean anomaly at epoch: 87.5905°
orbit number at epoch: 13278

The dashed part of the orbit path shows where the satellite is in the earth's shadow,  

DLR